Voltar ao catálogo

STARLINK-34448

AtivoComunicaçõesVLEO
NORAD 64291·PAYLOAD·🇺🇸 United States

Lançado Jun 8, 2025 de Vandenberg Space Force Base

Loading…

Próximas Passagens (próximas 24 horas)

TLE

AtualizadoSource: CelesTrak SupGP

Época: Sep 15, 2026, 02:24 UTC

1 64291C 25123A   26258.10048611 -.00046218  00000+0 -16074-2 0  2589
2 64291  69.9996  75.0619 0003651 271.0136 187.0786 15.29608156    16

Acompanhe STARLINK-34448 em tempo real com AllMySat

Download on the App Store